Location: Dover
(39.1580°N, 75.5250°W)
Time: 03:30:49
(UTC-04:00)

SeaSat 1 - Visible Passes

Search period start: 01 September 2014 00:00
Search period end: 11 September 2014 00:00
Orbit: 746 x 750 km, 108.0° (Epoch: 31 August)

Date Brightness Start Highest point End Pass type
(mag) Time Alt. Az. Time Alt. Az. Time Alt. Az.
01 Sep 4.2 22:56:26 27° N 22:56:26 27° N 22:58:47 10° NNW visible
02 Sep 4.4 22:14:09 19° NNE 22:14:09 19° NNE 22:16:32 10° N visible
02 Sep 5.1 23:53:59 16° NW 23:53:59 16° NW 23:54:58 10° NW visible
03 Sep 4.6 23:11:42 23° N 23:11:42 23° N 23:13:32 10° NNW visible
04 Sep 4.5 22:29:24 19° NNE 22:29:24 19° NNE 22:31:23 10° N visible
05 Sep 5.3 00:09:15 12° NW 00:09:15 12° NW 00:09:36 10° NW visible
05 Sep 4.9 23:26:57 18° NNW 23:26:57 18° NNW 23:28:16 10° NNW visible
06 Sep 4.7 22:44:39 18° NNE 22:44:39 18° NNE 22:46:13 10° N visible
07 Sep 4.9 22:02:21 11° NNE 22:02:21 11° NNE 22:02:42 10° NNE visible
07 Sep 5.2 23:42:11 15° NNW 23:42:11 15° NNW 23:42:59 10° NNW visible
08 Sep 4.9 22:59:53 16° N 22:59:53 16° N 23:01:02 10° N visible
09 Sep 5.0 22:17:34 11° NNE 22:17:34 11° NNE 22:17:55 10° NNE visible
09 Sep 5.4 23:57:25 12° NNW 23:57:25 12° NNW 23:57:41 10° NNW visible
10 Sep 5.1 23:15:06 14° N 23:15:06 14° N 23:15:49 10° N visible
